Погода в Нуорагане

Россия / Республика Саха (Якутия)     62°09′10″N   131°04′38″E
темп.,
°C
ветер,
м/с
пор.,
м/с
влажн.,
%
обл.,
%
осадки,
мм/ч
давл.,
гПа
погр.,
м
1 марта, пн
пн100:00−26зсз3897100 0.2 1023654
03:00−27з2798100 0.3 1024376
06:00−27з3896100 0.1 1024625
09:00−27з4794100 0.1 1024736
12:00−26з3690100 0.1 1025830
15:00−25зсз3689100 0.2 1024948
18:00−27з2697100 0.1 1025334
21:00−27з2698100 0.1 1025389
2 марта, вт
вт200:00−29з2598100 0.1 1025215
03:00−30з2399100 0.1 102690
06:00−31з2299100 0.1 102650
09:00−31зюз2499100 0.1 1026139
12:00−28з2393100 0.0 1026511
15:00−27з2392100 0.1 1025583
18:00−29з1297100 0.0 102522
21:00−30з1198100 0.1 102520
3 марта, ср
ср300:00−30з1199100 0.1 102419
03:00−30з1199100 0.1 102424
06:00−31зсз1199100 0.1 102330
09:00−30зсз1297100 0.1 1022188
12:00−28зсз2290100 0.1 1021520
15:00−28зсз2392100 0.1 1019568
18:00−30зсз2298100 0.1 101971
21:00−31з249999 0.1 1018162
4 марта, чт
чт400:00−31з2599100 0.1 1017246
03:00−32з2697100 0.2 1017351
06:00−32з3797100 0.1 1017419
09:00−32з3694100 0.1 1017518
12:00−30з3590100 0.1 1018787
15:00−29зсз3588100 0.1 1018867
18:00−32зсз2396100 0.0 101961
21:00−35з2599100 0.1 102192
5 марта, пт
пт500:00−37з379877 0.0 1021125
03:00−37з389778 0.0 1022200
06:00−38з399799 0.0 1023258
09:00−37зсз389498 0.0 1023323
12:00−32з479399 0.0 1023452
15:00−29зсз489299 0.0 1023568
18:00−30зсз41194100 0.0 1024541
21:00−31зсз41194100 0.0 1024493